STARLINK-30496, 57919

Orbit data source: Space-Track

STARLINK-30496, 57919 is a payload satellite owned by SpaceX/Seattle (US) in LEO that was launched on Sun, 24 Sep 2023 UTC via an FALCON 9 launch vehicle from the Air Force Eastern Test Range (AFETR). Payload-class satellites include a variety of spacecraft equipped with specific instruments for various scientific and technological missions. These include communications satellites like Starlink; space stations such as the ISS; scientific satellites like the Hubble; Earth observation satellites from companies like Planet Labs, Umbra, and HawkEye 360; GPS; miniature CubeSats for education and research; and military/defense satellites.

Loading next visibility...
Identifier
57919, 2023-147G
Orbit
LEO
Country
Flag of USUS
Related business
Manufacturer
SpaceX/Seattle
Mission
Operational Commercial Communications
Bus & Motor
STARLINK V2M, Unknown motor
Mass
730 kg wet, ~700 kg dry
Launch date (UTC)
2023-09-24 (3 years ago)
Launch vehicle
FALCON 9
Launch site
Air Force Eastern Test Range (AFETR)
Object type
Payload
Rocket body
Debris
Shape & HBR
Box + 2 Pan, 17.7 m
Radar Cross Section
33.884 m², Large (>1 m²)

Expand to show TLE details & history
Last TLE update: 3 days ago

TLE from 3 days ago
0 STARLINK-30496
1 57919U 23147G   26170.99111593  .00000874  00000-0  41257-4 0  9994
2 57919  43.0019 107.4677 0000698 226.0864 133.9931 15.27600530152278
Epoch: 2026-06-19T23:47Z
TLE epoch observation values (Epoch: 2026-06-19T23:47:12.416Z)
Latitude
0.00005°
Longitude
-157.54614°
Altitude
483.096 km
Speed
7.625 km/s
True Right ascension
07h 09m 52s
True Declination
0° 00' 00"
Sunlit
Object was in daylight at epoch
Visualization orbit readout
Latitude
Unknown
Longitude
Unknown
Altitude
Unknown
Speed
Unknown
Apparent Right ascension
Unknown
Apparent Declination
Unknown
Sunlit
N/A
Visualization observer readout
Local Sidereal Time
00:33:50
Azimuth
Unknown
Elevation
Unknown
Doppler factor
Unknown
Orbital elements
Apogee altitude
485.412 km
Perigee altitude
484.453 km
Semi-major axis
6,863.069 km
Eccentricity
0.00007
Inclination
43.0019°
RAAN
107.4677°
Arg. of periapsis
226.0864°
True anomaly
133.99885°
Mean anomaly
133.9931°
Eccentric anomaly
133.99598°
Mean motion
3.81738 °/min
Orbital period
94.31 mins
BSTAR
0.000041257
Loading maneuver chart data...
Computing Atmospheric mass density...
Loading historical data...
Loading historical data...
Loading historical data...
Loading historical data...
Loading historical data...
Loading historical data...
Loading historical data...

Documentation

Showing up to 5 results
|